BEIDOU 12 (C11)

Last updated on Dec. 12, 2019, 4:25 a.m. UTC

1 38250U 12018A   19345.38700909 -.00000059  00000-0  10000-3 0  9997
2 38250  56.6858  23.9318 0024556 239.3562  97.8921  1.86232780 51960
UTC
Height (km)
Latitude
Longitude
Inclination
Orbital Period
UTC large
Height (km)
Speed (km/s)
/
Latitude / Longitude
Inclination (degrees)
Orbital Period (minutes)
Azimuth
Elevation
Range (km)
Doppler Factor
iOS Compass Heading
iOS Angle

Next 30 passes for location: Hong Kong

Rise time Rise Azimuth (degrees) Set time Set Azimuth (degrees) Duration Max altitude (degrees)

No matching passes for this satellites